カタログに戻る

STARLINK-30874

運用中通信VLEO
NORAD 58227·PAYLOAD·🇺🇸 United States

打ち上げ Nov 3, 2023 から Cape Canaveral Space Force Station

Loading…

次のパス (今後24時間)

TLE

最新Source: CelesTrak SupGP

元期: Sep 14, 2026, 22:28 UTC

1 58227C 23170X   26257.93659722  .00001222  00000+0  44283-4 0  2570
2 58227  42.9998 205.5875 0001330 256.1922 356.8251 15.27573097    10

AllMySatでSTARLINK-30874をリアルタイム追跡

Download on the App Store